Change the Weather History Date:

Saturday, March 16, 2013

  Actual Average Record
Temperature  
Mean Temperature 58 °F 46 °F  
Max Temperature 73 °F 57 °F 83 °F (1945)
Min Temperature 43 °F 35 °F 5 °F (1900)
Degree Days  
Heating Degree Days 7 19  
Month to date heating degree days 390 348  
Since 1 July heating degree days 3805 3849  
Cooling Degree Days 0 0  
Month to date cooling degree days 0 0  
Year to date cooling degree days 0 0  
Growing Degree Days 8 (Base 50)    
Moisture  
Dew Point 43 °F    
Average Humidity 67    
Maximum Humidity 92    
Minimum Humidity 41    
Precipitation  
Precipitation 0.10 in 0.13 in 1.63 in (1963)
Month to date precipitation 1.10 2.00  
Year to date precipitation 6.78 8.04  
Snow  
Snow 0.00 in - - ()
Month to date snowfall T  
Since 1 September snowfall 11.9  
Snow Depth 0.00 in    
Sea Level Pressure  
Sea Level Pressure 29.76 in    
Wind  
Wind Speed 10 mph (NW)    
Max Wind Speed 22 mph    
Max Gust Speed 33 mph    
Visibility 9 miles    
Events Rain    
T = Trace of Precipitation, MM = Missing Value Source: NWS Daily Summary

Daily Weather History Graph

Daily Weather History Graph

Search for Another Location

Airport or City:

Trip Planner

Search our weather history database for the weather conditions in past years. The results will help you decide how hot, cold, wet, or windy it might be!

Date:

Astronomy

Mar. 16, 2013 Rise Set
Actual Time 7:39 AM EDT 7:38 PM EDT
Civil Twilight 7:13 AM EDT 8:04 PM EDT
Nautical Twilight 6:42 AM EDT 8:35 PM EDT
Astronomical Twilight 6:11 AM EDT 9:06 PM EDT
Moon 10:12 AM EDT (3/16) No Moon Set
Length of Visible Light 12h 51m
Length of Day
11h 59m
Waxing Crescent, 23% of the Moon is Illuminated
Mar 16
Waxing Crescent
Mar 19
First Quarter
Mar 27
Full
Apr 3
Last Quarter
Apr 10
New

Hourly Weather History & Observations

Time (EDT) Temp. Windchill Dew Point Humidity Pressure Visibility Wind Dir Wind Speed Gust Speed Precip Events Conditions
12:51 AM 50.0 °F - 37.0 °F 61% 29.82 in 10.0 mi East 4.6 mph - N/A   Overcast
1:51 AM 50.0 °F - 37.0 °F 61% 29.78 in 10.0 mi East 5.8 mph - N/A   Overcast
2:51 AM 48.0 °F - 37.9 °F 68% 29.75 in 10.0 mi NE 4.6 mph - 0.00 in Rain Light Rain
3:51 AM 46.4 °F 42.9 °F 42.8 °F 87% 29.72 in 4.0 mi East 6.9 mph - N/A Rain Rain
4:51 AM 46.0 °F 41.0 °F 42.1 °F 86% 29.73 in 10.0 mi ENE 10.4 mph - 0.01 in   Overcast
5:51 AM 45.0 °F 41.2 °F 42.1 °F 90% 29.71 in 10.0 mi ESE 6.9 mph - N/A   Clear
6:51 AM 45.0 °F - 41.0 °F 86% 29.71 in 10.0 mi Calm Calm - N/A   Clear
7:51 AM 45.0 °F 43.5 °F 41.0 °F 86% 29.70 in 10.0 mi SSE 3.5 mph - N/A   Clear
8:51 AM 45.0 °F 43.5 °F 43.0 °F 93% 29.69 in 9.0 mi South 3.5 mph - N/A   Clear
9:51 AM 52.0 °F - 45.0 °F 77% 29.68 in 10.0 mi SSW 4.6 mph - N/A   Clear
10:51 AM 59.0 °F - 48.0 °F 67% 29.66 in 10.0 mi SSW 8.1 mph - N/A   Clear
11:51 AM 68.0 °F - 48.0 °F 49% 29.65 in 10.0 mi WSW 15.0 mph 26.5 mph N/A   Clear
12:51 PM 71.1 °F - 46.9 °F 42% 29.65 in 10.0 mi WSW 17.3 mph 32.2 mph N/A   Clear
1:51 PM 71.1 °F - 46.9 °F 42% 29.66 in 10.0 mi West 17.3 mph 27.6 mph N/A   Mostly Cloudy
2:51 PM 68.0 °F - 46.9 °F 47% 29.68 in 10.0 mi West 15.0 mph 27.6 mph N/A   Overcast
3:51 PM 70.0 °F - 48.0 °F 46% 29.68 in 10.0 mi West 12.7 mph 21.9 mph N/A   Scattered Clouds
4:51 PM 69.1 °F - 46.9 °F 45% 29.70 in 10.0 mi West 16.1 mph 21.9 mph N/A   Mostly Cloudy
5:10 PM 66.2 °F - 50.0 °F 56% 29.72 in 10.0 mi NNW 12.7 mph 24.2 mph N/A   Mostly Cloudy
5:51 PM 64.0 °F - 48.0 °F 56% 29.74 in 10.0 mi NNW 15.0 mph 23.0 mph N/A   Mostly Cloudy
6:51 PM 60.1 °F - 45.0 °F 57% 29.79 in 9.0 mi NNW 16.1 mph 21.9 mph N/A   Scattered Clouds
7:51 PM 55.0 °F - 43.0 °F 64% 29.85 in 8.0 mi NNW 16.1 mph 23.0 mph N/A   Clear
8:51 PM 48.9 °F - 39.0 °F 69% 29.90 in 7.0 mi NNW 12.7 mph 24.2 mph N/A   Partly Cloudy
9:15 PM 48.2 °F - 39.2 °F 71% 29.91 in 7.0 mi North 9.2 mph - N/A   Mostly Cloudy
9:51 PM 46.0 °F 40.6 °F 37.9 °F 73% 29.92 in 8.0 mi North 11.5 mph 17.3 mph N/A   Overcast
10:51 PM 44.1 °F 40.1 °F 36.0 °F 73% 29.97 in 10.0 mi North 6.9 mph - N/A   Overcast
11:51 PM 43.0 °F 39.5 °F 35.1 °F 74% 29.99 in 10.0 mi North 5.8 mph - N/A   Overcast